Lid_Strength_Index
-1 -1 0 3 11 11 14 11 8 9 9 6 5 7 8 7 9 12 2 0 -0 0 -1 -1 -1 -1 -1 -2 -2 -2 -2 -2 -2 -2 -2 -2 -1 -2 -2 -1 -1 -2 -1 -1 -2 -1 -1 -1 -1
-0 0 2 6 13 15 14 8 10 8 6 5 5 6 7 9 5 4 3 0 -0 -0 -1 -1 -1 -1 -2 -2 -2 -2 -2 -1 -1 -2 -2 -2 -1 -2 -2 -1 -1 -1 -1 -1 -1 -1 -1 -1 -1
0 1 6 10 13 15 13 9 8 6 5 6 6 5 6 7 4 3 1 0 -0 -0 -1 -1 -1 -1 -2 -2 -2 -2 -2 -1 -2 -1 -2 -2 -2 -2 -1 -2 -1 -1 -1 -1 -1 -1 -1 -1 -1
2 4 5 11 13 11 9 8 6 7 6 5 5 8 5 2 3 1 0 0 0 -0 -1 -1 -1 -1 -2 -2 -2 -2 -2 -1 -1 -2 -2 -1 -1 -1 -1 -1 -2 -1 -1 -1 -1 -1 -1 -1 -1
2 5 11 13 13 9 7 6 6 7 7 6 6 8 7 3 1 1 0 0 1 -0 -1 -1 -1 -2 -2 -2 -2 -2 -1 -1 -2 -2 -1 -1 -1 -1 -1 -1 -1 -2 -1 -1 -1 -1 -1 -1 -1
7 7 13 14 11 7 6 6 6 7 6 6 7 7 6 2 2 1 0 0 0 0 -1 -1 -1 -2 -2 -2 -2 -1 -1 -1 -2 -1 -1 -1 -1 -1 -1 -1 -1 -2 -1 -1 -1 -1 -1 -1 -1
8 10 13 12 10 9 7 5 6 6 6 7 5 8 6 4 2 1 1 0 0 -0 -0 -1 -1 -1 -2 -2 -2 -1 -1 -1 -1 -1 -1 -1 -1 -1 -2 -2 -2 -2 -1 -1 -1 -1 -1 -1 -1
5 7 11 10 10 9 6 5 5 6 7 3 4 8 8 4 1 1 1 1 0 0 -0 -0 -1 -1 -1 -1 -1 -1 -1 -1 -1 -1 -1 -1 -1 -1 -2 -2 -2 -2 -1 -1 -1 -1 -1 -1 -1
3 10 13 11 10 8 5 6 5 4 5 5 4 5 3 2 1 2 2 2 1 1 0 -0 -0 -1 -1 -1 -1 -1 -1 -1 -1 -1 -1 -1 -1 -2 -1 -2 -2 -2 -2 -1 -1 -1 -1 -1 -1
6 10 11 8 7 7 6 5 5 5 6 6 5 4 3 2 3 3 3 3 2 2 1 -0 -0 -0 -1 -1 -1 -1 -1 -1 -2 -2 -2 -1 -1 -1 -1 -2 -2 -2 -2 -2 -2 -2 -1 -2 -1
6 9 8 7 6 5 7 7 4 6 7 6 7 5 4 3 3 3 3 2 2 1 1 0 -0 -1 -1 -0 -1 -1 -1 -1 -1 -2 -1 -1 -1 -2 -1 -1 -1 -1 -2 -1 -1 -1 -1 -1 -1
7 6 6 7 5 5 7 6 5 5 5 4 4 4 3 4 4 3 3 2 2 1 1 0 -0 -0 -1 -1 -1 -1 -1 -1 -1 -1 -2 -2 -1 -1 -1 -1 -1 -1 -1 -1 -1 -1 -1 -1 -1
6 6 6 5 5 5 6 8 6 5 4 3 3 3 4 4 3 2 2 2 1 2 1 0 -0 -0 -1 -0 -1 -1 -1 -1 -0 -1 -2 -2 -0 -0 -1 -0 -1 -1 -2 -1 -1 -1 -1 -1 -1
5 5 5 5 6 5 6 7 5 5 3 4 4 4 4 3 3 3 2 2 2 1 1 0 0 -0 -1 -1 -1 -1 -2 -2 -3 -2 -1 -3 -2 -0 -0 -0 -0 -1 -2 -2 -1 -1 -0 -0 -1
5 7 6 5 5 5 4 8 7 5 4 4 4 4 4 3 3 3 2 2 2 1 0 1 0 -0 -0 -1 -1 -2 -2 -2 -2 -2 -2 -3 -3 -2 -1 -0 -1 -0 -1 -2 -1 -1 -1 -0 -1
6 6 9 6 5 5 5 9 7 5 6 5 5 4 4 3 3 2 2 2 1 1 1 0 0 0 -0 -0 -1 -1 -1 -2 -2 -2 -1 -2 -3 -3 -2 -0 -0 -1 -2 -1 -0 -0 0 0 0
7 10 9 8 5 6 6 8 7 5 6 5 5 5 4 4 3 2 2 1 1 1 1 1 0 0 0 -0 -0 -1 -1 -1 -2 -3 -2 -2 -2 -2 -2 -1 -1 -2 -1 -0 -0 0 -0 1 1
10 10 9 9 7 6 7 7 7 6 6 6 5 5 4 4 3 2 2 1 1 1 1 1 0 0 0 -0 -0 -0 -0 -1 -2 -2 -2 -1 -2 -2 -1 -1 -1 -1 0 -0 -0 -0 -0 0 0
7 8 8 7 6 7 7 7 7 7 7 7 5 5 5 4 3 2 2 1 1 1 1 1 1 0 1 1 1 1 1 0 -0 -1 -2 -1 -2 -2 -2 -1 -0 -1 -0 -1 -0 0 0 1 -0
7 8 8 6 6 6 7 7 8 8 8 7 6 7 5 4 3 3 2 2 2 2 1 1 1 1 1 1 1 0 0 0 -0 -1 -2 -2 -1 -2 -1 -1 -0 -1 0 -0 -0 0 1 1 0
8 9 8 8 7 6 7 9 8 7 6 7 7 5 4 4 4 3 3 2 2 2 1 1 1 1 1 0 0 0 0 0 1 0 0 -0 -2 -1 -1 -1 -1 -1 0 0 0 0 0 2 1
9 7 7 7 8 10 7 13 9 7 7 7 5 5 5 4 3 3 3 3 2 2 1 1 1 1 1 0 1 1 2 2 1 1 0 0 -1 -1 -1 -1 -1 -0 -0 0 0 0 0 1 2
8 6 7 7 8 8 8 11 9 7 8 6 6 5 4 4 4 3 3 2 2 1 1 1 1 1 1 0 1 1 1 1 1 0 0 0 -0 -1 -1 -1 -1 -0 -0 -0 -0 0 0 0 1
5 6 7 7 8 11 9 10 10 9 8 6 5 4 4 4 4 3 2 2 2 1 1 1 1 1 1 1 1 1 1 1 1 1 1 1 0 0 -0 -1 -0 -1 -0 -0 -0 -0 0 0 1
6 8 11 12 12 13 8 10 9 7 6 5 5 5 4 4 4 3 3 3 2 2 2 1 2 2 1 1 1 1 1 1 1 1 1 1 1 1 0 -0 0 0 -0 -0 -0 0 0 0 1
7 8 11 14 13 12 8 11 9 5 4 4 4 4 4 4 4 3 3 3 3 2 2 2 2 2 1 1 1 1 1 1 1 1 1 1 1 1 0 0 -0 -0 -0 -0 -0 0 0 0 1
8 9 7 10 9 11 10 8 6 5 5 5 4 4 4 4 4 3 3 3 2 2 2 2 2 2 2 1 1 1 1 1 1 1 0 1 0 0 0 0 0 0 -0 -0 -0 0 1 0 0
7 6 10 9 13 13 11 10 10 7 6 5 5 4 4 4 3 3 3 3 2 2 2 1 1 2 2 1 1 1 1 1 1 0 1 1 0 0 -0 0 0 0 0 0 0 0 0 1 1
8 8 8 8 9 12 13 10 6 7 6 5 5 4 4 4 4 3 3 3 2 2 2 2 2 2 2 1 1 1 1 1 1 1 1 1 0 0 0 0 0 0 0 0 0 0 0 1 1
7 8 8 10 11 9 10 10 5 5 5 5 4 4 3 3 3 3 3 3 2 2 2 2 2 2 2 1 1 1 1 1 1 1 1 0 1 0 0 0 0 1 0 0 1 1 1 1 1